GW1618 Weather Reports


Display with metric or nautical units.
time (UTC)temp
F
wind
direction
speed
MPH
gust
MPH
rain 1hr
in
rain 24hr
in
rain mn
in
humidity
%
barometer
mb
20260905180933 58 269 2.0 4.0 0.00 0.04 0.01 81 1017.6
20260905180430 57 222 2.0 4.0 0.00 0.04 0.01 83 1017.6
20260905175920 57 211 2.0 4.0 0.00 0.04 0.01 84 1017.6
20260905175420 57 202 2.0 4.0 0.00 0.04 0.01 84 1017.6
20260905174928 57 194 2.0 4.0 0.00 0.04 0.01 84 1017.6
20260905174711 56 158 1.0 3.0 0.00 0.04 0.01 85 1017.6
20260905173919 56 205 2.0 3.0 0.00 0.04 0.01 85 1017.5
20260905173418 56 166 2.0 4.0 0.00 0.04 0.01 85 1017.5
20260905172916 56 225 2.0 4.0 0.00 0.04 0.01 85 1017.5
20260905172719 56 215 2.0 5.0 0.00 0.04 0.01 85 1017.5
20260905171914 56 240 3.0 5.0 0.00 0.04 0.01 86 1017.5
20260905171412 56 218 2.0 4.0 0.00 0.04 0.01 87 1017.5
20260905170913 56 205 2.0 4.0 0.00 0.04 0.01 87 1017.6
20260905170718 56 226 1.0 3.0 0.00 0.04 0.01 88 1017.6
20260905165900 55 223 1.0 2.0 0.00 0.04 0.01 88 1017.6
20260905165355 55 316 1.0 2.0 0.00 0.04 0.01 88 1017.5
20260905164850 55 323 0.0 1.0 0.00 0.04 0.01 89 1017.5
20260905164342 54 335 1.0 3.0 0.00 0.04 0.01 89 1017.5
20260905163835 54 335 1.0 3.0 0.00 0.04 0.01 89 1017.2
20260905163402 54 9 1.0 3.0 0.00 0.04 0.01 89 1017.2
20260905162331 54 343 3.0 5.0 0.00 0.04 0.01 89 1017.1
20260905161834 54 342 3.0 5.0 0.00 0.04 0.01 89 1017.1
20260905161631 54 344 2.0 4.0 0.00 0.04 0.01 89 1017.1
20260905160838 53 359 2.0 3.0 0.00 0.04 0.01 89 1017.1
20260905160329 53 28 2.0 3.0 0.00 0.04 0.01 89 1017.1
20260905155833 53 18 2.0 4.0 0.00 0.04 0.01 89 1017.1
20260905155330 53 342 1.0 4.0 0.00 0.04 0.01 89 1017.1
20260905154822 54 344 1.0 2.0 0.00 0.04 0.01 90 1017.1
20260905154616 54 13 1.0 2.0 0.00 0.04 0.01 90 1017.1
20260905153807 54 67 0.0 1.0 0.00 0.04 0.01 91 1017.1
20260905153601 53 92 0.0 1.0 0.00 0.04 0.01 91 1017.1
20260905152752 53 92 0.0 2.0 0.00 0.04 0.01 91 1017.1
20260905152250 53 92 0.0 2.0 0.00 0.04 0.01 92 1017.0
20260905151741 53 132 0.0 2.0 0.00 0.04 0.01 92 1017.0
20260905151305 52 209 1.0 3.0 0.00 0.04 0.01 92 1017.0
20260905150232 51 240 1.0 3.0 0.00 0.04 0.01 92 1017.0
20260905145729 51 221 1.0 3.0 0.00 0.04 0.01 92 1017.0
20260905145229 51 215 1.0 3.0 0.00 0.04 0.01 92 1017.0
20260905144730 51 215 1.0 3.0 0.00 0.04 0.01 92 1017.0
20260905144208 51 184 1.0 3.0 0.00 0.04 0.01 92 1017.0
20260905143709 51 217 2.0 4.0 0.00 0.04 0.01 92 1017.0
20260905143205 51 220 2.0 4.0 0.00 0.04 0.01 92 1017.0
20260905142701 51 174 2.0 5.0 0.00 0.04 0.01 92 1017.0
20260905142201 51 227 2.0 5.0 0.00 0.04 0.01 92 1017.0
20260905141702 51 205 2.0 4.0 0.00 0.04 0.01 92 1017.0
20260905141201 51 208 2.0 4.0 0.00 0.04 0.01 92 1017.0
20260905141003 51 221 1.0 3.0 0.00 0.04 0.01 92 1016.8
20260905140205 51 194 1.0 2.0 0.00 0.04 0.01 92 1016.8
20260905135708 51 207 1.0 3.0 0.00 0.04 0.01 92 1016.8
20260905135208 51 208 1.0 4.0 0.00 0.04 0.01 92 1016.6
20260905134941 51 226 1.0 4.0 0.00 0.04 0.01 92 1016.6
20260905134203 51 217 1.0 3.0 0.00 0.04 0.01 92 1016.6
20260905133705 51 210 1.0 2.0 0.00 0.04 0.01 92 1016.5
20260905133200 51 209 1.0 3.0 0.00 0.04 0.01 92 1016.5
20260905132701 51 221 1.0 3.0 0.00 0.04 0.01 92 1016.5
20260905132201 51 179 2.0 4.0 0.00 0.04 0.01 92 1016.5
20260905131704 51 169 2.0 4.0 0.00 0.04 0.01 92 1016.5
20260905131202 51 177 1.0 3.0 0.00 0.04 0.01 92 1016.5
20260905130702 51 198 1.0 3.0 0.00 0.04 0.01 92 1016.4
20260905130203 51 204 1.0 3.0 0.00 0.04 0.01 92 1016.4
20260905125700 51 196 0.0 2.0 0.00 0.04 0.01 92 1016.4
20260905125158 51 196 1.0 4.0 0.00 0.04 0.01 92 1016.5
20260905124656 51 196 2.0 4.0 0.00 0.04 0.01 92 1016.5
20260905124440 51 209 2.0 3.0 0.00 0.04 0.01 92 1016.5
20260905123646 51 157 1.0 3.0 0.00 0.04 0.01 92 1016.5
20260905123418 51 174 1.0 3.0 0.00 0.04 0.01 92 1016.5
20260905122642 51 175 1.0 3.0 0.00 0.04 0.01 92 1016.4
20260905122143 51 166 1.0 3.0 0.00 0.04 0.01 92 1016.4
20260905121636 51 155 2.0 3.0 0.00 0.04 0.01 92 1016.4
20260905121136 51 155 2.0 3.0 0.00 0.04 0.01 92 1016.3
20260905120636 51 165 1.0 3.0 0.00 0.04 0.01 92 1016.3
20260905120137 51 133 1.0 2.0 0.00 0.04 0.01 92 1016.3
20260905115632 51 89 0.0 2.0 0.00 0.04 0.01 92 1016.3
20260905115130 52 178 1.0 2.0 0.00 0.04 0.01 92 1016.3
20260905114629 52 178 1.0 3.0 0.00 0.04 0.01 92 1016.3
20260905114131 52 226 1.0 3.0 0.00 0.04 0.01 92 1016.3
20260905113632 52 204 1.0 3.0 0.00 0.04 0.01 92 1016.3
20260905113130 52 184 1.0 3.0 0.00 0.04 0.01 92 1016.3
20260905112632 52 156 1.0 3.0 0.00 0.04 0.01 92 1016.2
20260905112132 52 157 2.0 4.0 0.00 0.04 0.01 92 1016.2
20260905111623 52 178 2.0 3.0 0.01 0.04 0.01 92 1016.2
20260905111117 52 198 2.0 3.0 0.01 0.04 0.01 93 1016.2
20260905110605 52 169 2.0 3.0 0.01 0.04 0.01 92 1016.2
20260905110104 52 167 2.0 3.0 0.01 0.04 0.01 92 1016.2
20260905105602 52 154 1.0 2.0 0.01 0.04 0.01 92 1016.0
20260905105105 52 157 1.0 2.0 0.01 0.04 0.01 93 1016.0
20260905104604 52 170 1.0 2.0 0.01 0.04 0.01 93 1016.0
20260905104103 52 242 1.0 2.0 0.01 0.04 0.01 93 1016.0
20260905103553 52 242 1.0 2.0 0.01 0.04 0.01 93 1016.0
20260905103040 52 256 1.0 1.0 0.01 0.04 0.01 93 1016.0
20260905102539 52 256 1.0 3.0 0.01 0.04 0.01 93 1016.0
20260905102315 52 256 2.0 3.0 0.01 0.04 0.00 93 1016.0
20260905101535 52 246 2.0 3.0 0.00 0.03 0.00 93 1016.0
20260905101031 52 184 2.0 4.0 0.00 0.03 0.00 93 1015.9
20260905100531 52 210 3.0 4.0 0.00 0.03 0.00 93 1015.9
20260905100027 52 223 2.0 4.0 0.00 0.03 0.00 93 1015.9
20260905095824 52 219 1.0 3.0 0.00 0.03 0.00 93 1016.0
20260905095022 53 250 1.0 3.0 0.00 0.03 0.00 93 1016.0
20260905094521 53 238 1.0 4.0 0.00 0.03 0.00 93 1016.0
20260905094024 53 231 1.0 4.0 0.00 0.03 0.00 93 1016.0
20260905093520 53 241 1.0 3.0 0.00 0.03 0.00 93 1016.0
20260905093024 53 217 2.0 5.0 0.00 0.03 0.00 93 1016.0
20260905092514 53 224 3.0 5.0 0.00 0.03 0.00 93 1016.0
20260905092319 53 199 2.0 5.0 0.00 0.03 0.00 93 1016.0
20260905091503 53 232 2.0 3.0 0.00 0.03 0.00 93 1016.0
20260905091002 53 226 1.0 4.0 0.00 0.03 0.00 93 1015.9
20260905090501 53 224 1.0 4.0 0.00 0.03 0.00 93 1015.9
20260905090001 53 250 1.0 2.0 0.00 0.03 0.00 92 1015.9
20260905085501 53 250 1.0 2.0 0.00 0.03 0.00 92 1015.7
20260905085002 53 213 1.0 2.0 0.00 0.03 0.00 92 1015.7
20260905084804 53 257 0.0 2.0 0.00 0.03 0.00 92 1015.7
20260905084249 53 257 1.0 2.0 0.00 0.03 0.00 92 1015.7
20260905083756 53 257 1.0 2.0 0.00 0.03 0.00 92 1015.7
20260905083030 53 257 1.0 3.0 0.00 0.03 0.00 92 1015.7
20260905082003 54 228 2.0 3.0 0.00 0.03 0.00 92 1015.6
20260905081455 54 239 2.0 3.0 0.00 0.03 0.00 92 1015.6
20260905080949 54 223 2.0 3.0 0.00 0.03 0.00 92 1015.5
20260905080453 54 207 2.0 3.0 0.00 0.03 0.00 92 1015.5
20260905075949 54 253 2.0 3.0 0.00 0.03 0.00 92 1015.5
20260905075451 54 269 2.0 3.0 0.00 0.03 0.00 92 1015.5
20260905074942 55 255 1.0 2.0 0.00 0.03 0.00 92 1015.5
20260905074745 55 252 1.0 2.0 0.00 0.03 0.00 92 1015.5
20260905073943 55 259 1.0 3.0 0.00 0.03 0.00 92 1015.5
20260905073440 55 259 1.0 3.0 0.00 0.03 0.00 92 1015.5
20260905073010 55 254 0.0 2.0 0.00 0.03 0.00 92 1015.5
20260905071938 55 252 1.0 2.0 0.00 0.03 0.00 92 1015.5
20260905071437 55 264 0.0 2.0 0.00 0.03 0.00 91 1015.5
20260905070929 55 231 1.0 3.0 0.00 0.03 0.00 91 1015.5
20260905070430 55 231 2.0 3.0 0.00 0.03 0.00 92 1015.5
20260905065929 55 194 2.0 4.0 0.00 0.03 0.03 92 1015.5
20260905065436 55 204 2.0 4.0 0.00 0.03 0.03 91 1015.2
20260905064932 55 233 1.0 4.0 0.00 0.03 0.03 92 1015.2
20260905064714 55 197 1.0 3.0 0.00 0.03 0.03 92 1015.2
20260905063915 55 209 1.0 3.0 0.00 0.03 0.03 92 1015.0
20260905063413 55 236 0.0 2.0 0.00 0.03 0.03 92 1015.0
20260905063203 55 256 0.0 2.0 0.00 0.03 0.03 91 1015.0
20260905062412 56 258 1.0 3.0 0.00 0.03 0.03 91 1014.9
20260905061909 56 256 2.0 4.0 0.00 0.03 0.03 91 1014.9
20260905061407 56 227 3.0 6.0 0.00 0.03 0.03 91 1014.9
20260905061159 56 217 3.0 6.0 0.00 0.03 0.03 91 1014.9
20260905060405 56 229 3.0 5.0 0.00 0.03 0.03 91 1014.9
20260905055903 56 224 3.0 5.0 0.00 0.03 0.03 91 1014.9
20260905055403 56 224 2.0 4.0 0.00 0.03 0.03 91 1014.8
20260905054904 56 215 2.0 4.0 0.00 0.03 0.03 91 1014.8
20260905054404 57 211 3.0 5.0 0.00 0.03 0.03 91 1014.8
20260905053904 57 202 3.0 5.0 0.00 0.03 0.03 91 1014.8
20260905053401 56 223 3.0 5.0 0.00 0.03 0.03 90 1014.8
20260905052906 56 208 3.0 5.0 0.00 0.03 0.03 90 1014.8
20260905052404 57 217 3.0 5.0 0.00 0.03 0.03 90 1014.8
20260905051904 57 204 3.0 5.0 0.00 0.03 0.03 90 1014.8
20260905051401 57 229 2.0 4.0 0.00 0.03 0.03 90 1014.8
20260905051149 57 248 2.0 3.0 0.00 0.03 0.03 89 1014.8
20260905050357 57 235 1.0 3.0 0.00 0.03 0.03 89 1014.8
20260905045857 57 218 2.0 4.0 0.00 0.03 0.03 89 1014.8
20260905045355 57 224 2.0 4.0 0.00 0.03 0.03 88 1014.8
20260905044858 57 217 2.0 3.0 0.00 0.03 0.03 88 1014.8
20260905044339 57 229 3.0 4.0 0.00 0.03 0.03 87 1014.8
20260905043831 58 230 2.0 4.0 0.00 0.03 0.03 87 1014.8
20260905043330 58 208 1.0 3.0 0.00 0.03 0.03 86 1014.8
20260905042831 58 236 0.0 2.0 0.00 0.03 0.03 85 1014.8
20260905042331 58 344 1.0 2.0 0.00 0.03 0.03 84 1014.8
20260905041835 58 346 2.0 3.0 0.00 0.03 0.03 84 1014.8
20260905041329 58 343 3.0 5.0 0.00 0.03 0.03 84 1014.8
20260905040826 58 359 4.0 7.0 0.00 0.03 0.03 84 1014.8
20260905040316 58 14 5.0 8.0 0.00 0.03 0.03 84 1014.8
20260905035852 58 344 3.0 8.0 0.00 0.03 0.03 84 1014.8
20260905034816 58 186 2.0 4.0 0.01 0.03 0.03 84 1014.5
20260905034606 58 207 3.0 6.0 0.02 0.03 0.03 84 1014.5
20260905033807 58 192 3.0 6.0 0.02 0.03 0.03 84 1014.4
20260905033304 58 177 4.0 6.0 0.02 0.03 0.03 84 1014.4
20260905032803 59 241 3.0 6.0 0.03 0.03 0.03 84 1014.4
20260905032306 59 219 3.0 6.0 0.03 0.03 0.03 84 1014.4
20260905031841 59 219 3.0 6.0 0.03 0.03 0.03 83 1014.4
20260905030802 59 207 3.0 6.0 0.03 0.03 0.03 84 1014.4
20260905030302 59 204 3.0 5.0 0.03 0.03 0.03 83 1014.4
20260905025805 59 227 4.0 9.0 0.03 0.03 0.03 83 1014.4
20260905025308 59 230 5.0 10.0 0.02 0.02 0.02 82 1014.3
20260905024801 59 242 5.0 10.0 0.02 0.02 0.02 81 1014.3
20260905024246 60 211 4.0 6.0 0.01 0.01 0.01 81 1014.3
20260905023743 61 250 4.0 7.0 0.01 0.01 0.01 80 1014.3
20260905023235 61 216 4.0 8.0 0.01 0.01 0.01 76 1014.3
20260905022732 61 171 4.0 8.0 0.00 0.00 0.00 75 1014.3
20260905022310 61 164 6.0 11.0 0.00 0.00 0.00 74 1014.1
20260905021232 63 146 8.0 17.0 0.00 0.00 0.00 69 1014.1
20260905020737 65 141 8.0 17.0 0.00 0.00 0.00 62 1013.9
20260905020233 66 141 6.0 15.0 0.00 0.00 0.00 55 1013.9
20260905015727 67 94 6.0 11.0 0.00 0.00 0.00 49 1013.9
20260905015227 67 110 8.0 14.0 0.00 0.00 0.00 50 1013.6
20260905014728 68 53 7.0 14.0 0.00 0.00 0.00 49 1013.6
20260905014226 68 96 8.0 16.0 0.00 0.00 0.00 49 1013.6
20260905013727 68 84 8.0 16.0 0.00 0.00 0.00 48 1013.2
20260905013526 68 44 6.0 14.0 0.00 0.00 0.00 46 1013.2
20260905013024 68 58 5.0 8.0 0.00 0.00 0.00 45 1013.2
20260905012223 68 73 7.0 11.0 0.00 0.00 0.00 46 1012.9
20260905011727 69 97 7.0 11.0 0.00 0.00 0.00 46 1012.9
20260905011225 69 48 6.0 11.0 0.00 0.00 0.00 47 1012.9
20260905010716 68 73 8.0 12.0 0.00 0.00 0.00 47 1012.9
20260905010516 69 53 6.0 12.0 0.00 0.00 0.00 47 1012.9
20260905005711 68 92 6.0 12.0 0.00 0.00 0.00 47 1012.9
20260905005210 68 69 6.0 12.0 0.00 0.00 0.00 48 1012.8
20260905004710 68 348 4.0 9.0 0.00 0.00 0.00 53 1012.8
20260905004208 69 340 3.0 7.0 0.00 0.00 0.00 53 1012.8
20260905003706 69 55 3.0 5.0 0.00 0.00 0.00 47 1012.8
20260905003207 68 301 3.0 5.0 0.00 0.00 0.00 49 1012.8
20260905003014 68 325 2.0 4.0 0.00 0.00 0.00 50 1012.8
20260905002205 68 321 3.0 5.0 0.00 0.00 0.00 51 1012.7
20260905001705 68 327 4.0 5.0 0.00 0.00 0.00 51 1012.7
20260905001209 67 329 4.0 5.0 0.00 0.00 0.00 52 1012.7
20260905001010 67 359 5.0 7.0 0.00 0.00 0.00 53 1012.6
20260905000205 67 14 5.0 7.0 0.00 0.00 0.00 55 1012.6
20260904235707 67 13 4.0 7.0 0.00 0.00 0.00 54 1012.6
20260904235214 68 350 3.0 4.0 0.00 0.00 0.00 54 1012.5
20260904234705 68 333 3.0 4.0 0.00 0.00 0.00 52 1012.5
20260904234206 68 325 3.0 4.0 0.00 0.00 0.00 52 1012.5
20260904233932 68 345 3.0 4.0 0.00 0.00 0.00 52 1012.5
20260904233133 68 327 3.0 4.0 0.00 0.00 0.00 52 1012.5
20260904232925 68 339 2.0 4.0 0.00 0.00 0.00 51 1012.7
20260904232143 68 312 2.0 3.0 0.00 0.00 0.00 52 1012.7
20260904231635 67 306 2.0 3.0 0.00 0.00 0.00 51 1012.7
20260904231136 67 302 2.0 3.0 0.00 0.00 0.00 52 1012.9
20260904230909 67 317 2.0 4.0 0.00 0.00 0.00 53 1012.9
20260904230132 67 329 2.0 4.0 0.00 0.00 0.00 53 1012.9
20260904225636 67 327 3.0 4.0 0.00 0.00 0.00 52 1012.9
20260904225131 67 200 3.0 5.0 0.00 0.00 0.00 53 1012.9
20260904224631 66 209 2.0 5.0 0.00 0.00 0.00 51 1012.9
20260904224133 66 231 3.0 4.0 0.00 0.00 0.00 53 1012.9
20260904223922 65 243 3.0 6.0 0.00 0.00 0.00 56 1012.9
20260904223133 64 209 3.0 6.0 0.00 0.00 0.00 61 1012.9
20260904222629 64 205 2.0 4.0 0.00 0.00 0.00 67 1012.9
20260904222129 63 180 3.0 6.0 0.00 0.00 0.00 69 1012.9
20260904221929 62 194 3.0 6.0 0.00 0.00 0.00 69 1012.9
20260904221130 62 212 3.0 5.0 0.00 0.00 0.00 73 1012.9
20260904220634 62 211 4.0 6.0 0.00 0.00 0.00 73 1012.9
20260904220134 62 221 4.0 7.0 0.00 0.00 0.00 74 1012.9
20260904215618 62 197 4.0 8.0 0.00 0.00 0.00 73 1012.9
20260904215106 62 213 5.0 11.0 0.00 0.00 0.00 71 1012.9
20260904214911 63 175 6.0 11.0 0.00 0.00 0.00 67 1012.9
20260904214103 64 204 6.0 13.0 0.00 0.00 0.00 63 1012.8
20260904213603 65 134 4.0 13.0 0.00 0.00 0.00 60 1012.8
20260904213103 65 221 1.0 5.0 0.00 0.00 0.00 57 1012.8
20260904212602 65 341 1.0 2.0 0.00 0.00 0.00 55 1012.6
20260904212112 64 315 2.0 3.0 0.00 0.00 0.00 58 1012.6
20260904211605 64 327 3.0 4.0 0.00 0.00 0.00 60 1012.6
20260904211102 64 350 4.0 6.0 0.00 0.00 0.00 61 1012.5
20260904210605 64 9 6.0 8.0 0.00 0.00 0.00 63 1012.5
20260904205601 64 359 5.0 7.0 0.00 0.00 0.00 64 1012.6
20260904205102 64 17 6.0 9.0 0.00 0.00 0.00 64 1012.6
20260904204601 64 23 6.0 9.0 0.00 0.00 0.00 65 1012.6
20260904204101 64 21 6.0 11.0 0.00 0.00 0.00 65 1012.8
20260904203850 63 4 8.0 11.0 0.00 0.00 0.00 67 1012.8
20260904203103 62 359 8.0 11.0 0.00 0.00 0.00 68 1012.8
20260904202606 62 26 8.0 11.0 0.00 0.00 0.00 71 1012.7
20260904202058 62 14 9.0 12.0 0.00 0.00 0.00 71 1012.7
20260904201548 62 4 10.0 12.0 0.00 0.00 0.00 71 1012.7
20260904201037 62 9 10.0 12.0 0.00 0.00 0.00 71 1012.7
20260904200535 62 18 9.0 12.0 0.00 0.00 0.00 68 1012.7
20260904200030 62 4 9.0 12.0 0.00 0.00 0.00 71 1012.7
20260904195530 62 4 9.0 12.0 0.00 0.00 0.00 70 1012.4
20260904195325 62 359 7.0 12.0 0.00 0.00 0.00 70 1012.4
20260904194529 63 9 5.0 9.0 0.00 0.00 0.00 68 1012.4
20260904194029 62 20 4.0 6.0 0.00 0.00 0.00 70 1012.6
20260904193530 62 346 6.0 9.0 0.00 0.00 0.00 71 1012.6
20260904193029 62 4 5.0 9.0 0.00 0.00 0.00 70 1012.6
20260904192534 62 342 4.0 6.0 0.00 0.00 0.00 71 1012.8
20260904192020 62 359 3.0 5.0 0.00 0.00 0.00 71 1012.8
20260904191514 62 21 3.0 4.0 0.00 0.00 0.00 72 1012.8
20260904191015 61 359 3.0 5.0 0.00 0.00 0.00 73 1012.8
20260904190806 61 342 4.0 5.0 0.00 0.00 0.00 75 1012.8
20260904190018 60 359 4.0 6.0 0.00 0.00 0.00 76 1012.8
20260904185516 60 359 4.0 6.0 0.00 0.00 0.00 77 1012.9
20260904185014 60 354 4.0 7.0 0.00 0.00 0.00 77 1012.9
20260904184517 60 359 4.0 7.0 0.00 0.00 0.00 78 1012.9
20260904184011 59 359 4.0 6.0 0.00 0.00 0.00 78 1012.9
20260904183514 59 9 4.0 6.0 0.00 0.00 0.00 79 1012.9
20260904183010 59 350 5.0 8.0 0.00 0.00 0.00 80 1012.9
20260904182801 58 341 6.0 10.0 0.00 0.00 0.00 81 1012.9
20260904182010 58 32 7.0 11.0 0.00 0.00 0.00 83 1012.9
20260904181510 58 19 8.0 11.0 0.00 0.00 0.00 83 1012.9